Weather in Krasnogorsky

Russia / Mari El Republic     56°09′08″N   48°19′21″E
temp.,
°C
wind,
m/s
gust,
m/s
humid.,
%
clouds,
%
prec.,
mm/h
press.,
hPa
HPBL,
m
6 august, fri
fri600:00+12n22736 0.0 101712
03:00+12ne2272100 0.0 101812
06:00+14nne11645 0.0 101868
09:00+21n12436 0.0 1018672
12:00+24n123474 0.0 10181798
15:00+24n233399 0.0 10171983
18:00+21nne365399 0.0 1017176
21:00+18ene2455100 0.0 101784
7 august, sat
sat700:00+18e2356100 0.0 101771
03:00+16ene2361100 0.1 101851
06:00+14ene3790100 0.9 1019168
09:00+13e4994100 2.8 1019262
12:00+16e478160 0.0 1020405
15:00+20e356143 0.0 1019740
18:00+19e476733 0.0 1019389
21:00+16e497575 0.0 1019233
8 august, sun
sun800:00+15e276991 0.0 1020146
03:00+14se356894 0.0 102193
06:00+17ese376461 0.0 1021208
09:00+22se464817 0.0 1021548
12:00+27sse3438100 0.0 10201149
15:00+28sse4436100 0.0 10201363
18:00+25ese355493 0.0 1020125
21:00+20se3462100 0.0 102066
9 august, mon
mon900:00+18se3669100 0.0 1021103
03:00+18se3967100 0.0 1021190
06:00+19se3865100 0.0 1021215
09:00+25sse464795 0.0 1020433
12:00+29ssw353816 0.0 10191009
15:00+30ssw243934 0.0 1018888
18:00+28sw24465 0.0 101787
21:00+23sw22565 0.0 101831
10 august, tue
tue1000:00+20nnw247310 0.0 101867
03:00+19nnw227796 0.0 101913
06:00+20nw238388 0.4 101994
09:00+26nnw23545 0.4 1019635
12:00+29nnw344278 0.0 10181608
15:00+29n4440100 0.0 10181761
18:00+25ne365994 0.0 1018222
21:00+20ne22697 0.0 101828